[[{"header":{"parameterUnit":"m.s-1","parameterCategory":1,"la1":30.2991,"la2":30.254,"lo1":-89.0895,"lo2":-89.0444,"dy":0.0017,"dx":0.0017,"nx":28,"ny":28,"refTime":"2024-12-01T09:00:00:Z","depth":0,"parameterNumber":2,"parameterNumberName":"U-component_of_WINDS"},"data":[0,0,0,0,0,0,0,0,0,0,0,0,0,0,0,0,0,0,0,0,0,0,0,0,0,0,0,0,0,0,0,0,0,0,0,0,0,0,0,0,0,0,0,0,0,0,0,0,0,0,0,0,0,0,0,0,0,0,-1.4516,-1.4516,0,-1.4574,-1.4575,-1.4575,-1.4488,-1.4485,-1.4482,-1.4479,-1.4542,-1.4547,-1.4551,0,0,0,0,0,0,0,0,0,0,0,0,0,-1.433,-1.4334,-1.4515,-1.4516,-1.4517,-1.4574,-1.4575,-1.4575,-1.4489,-1.4485,-1.4481,-1.4478,-1.4541,-1.4546,-1.4552,0,0,0,0,0,0,0,0,0,0,0,0,0,-1.4402,-1.4336,-1.4515,-1.448,-1.4478,-1.4574,-1.4575,-1.4576,-1.4489,-1.4485,-1.448,-1.4476,-1.4539,-1.4546,-1.4552,-1.4686,0,0,-1.4573,-1.4576,0,0,0,0,0,0,0,0,-1.4398,-1.4409,-1.4485,-1.4483,-1.448,-1.4519,-1.4532,-1.4613,-1.4491,-1.4485,-1.4479,-1.4474,-1.4539,-1.4545,-1.4566,-1.4689,-1.4692,-1.4574,-1.4578,-1.4581,-1.4583,0,0,0,0,0,0,0,-1.4393,-1.4406,-1.4539,-1.4486,-1.4483,-1.4462,-1.4467,-1.4547,-1.4537,-1.4485,-1.4479,-1.4487,-1.4536,-1.456,-1.4567,-1.4693,-1.4574,-1.458,-1.4584,-1.4587,-1.4928,-1.4933,0,0,0,0,0,0,-1.4392,-1.4403,-1.4537,-1.454,-1.4427,-1.4469,-1.4475,-1.4511,-1.4536,-1.4535,-1.4491,-1.4483,-1.4551,-1.4559,-1.4569,-1.4727,-1.4581,-1.4587,-1.4591,-1.4923,-1.4929,-1.4935,0,0,0,0,0,0,-1.4389,-1.4405,-1.4534,-1.447,-1.4485,-1.4477,-1.4519,-1.4515,-1.4538,-1.454,-1.4538,-1.4517,-1.4547,-1.4559,-1.4657,-1.4728,-1.459,-1.4597,-1.4917,-1.4925,-1.4932,-1.5045,0,0,0,0,0,0,-1.4384,-1.4404,-1.4455,-1.4472,-1.4488,-1.4622,-1.4523,-1.4519,-1.455,-1.454,-1.4564,-1.4563,-1.4545,-1.4648,-1.4664,-1.4735,-1.4602,-1.4911,-1.4921,-1.4929,-1.5035,-1.5056,-1.5073,0,0,0,0,0,-1.4377,-1.4486,-1.4458,-1.4475,-1.4551,-1.4626,-1.4636,-1.4611,-1.4556,-1.4607,-1.4608,-1.4563,-1.4717,-1.4659,-1.4676,-1.4751,-1.4906,-1.4918,-1.4929,-1.5027,-1.5052,-1.5073,0,0,0,0,0,0,-1.4479,-1.4487,-1.4457,-1.4573,-1.4599,-1.4611,-1.4675,-1.4639,-1.4682,-1.4671,-1.4639,-1.4645,-1.475,-1.476,-1.4694,-1.4881,-1.4803,-1.4818,-1.4871,-1.4895,-1.4914,-1.491,-1.4608,0,0,0,0,0,-1.4515,-1.4574,-1.4578,-1.4681,-1.4695,-1.4683,-1.4715,-1.4693,-1.4719,-1.473,-1.4738,-1.4767,-1.4821,-1.4858,-1.4909,-1.5035,-1.504,-1.5095,-1.5114,-1.513,-1.5144,-1.5211,-1.5236,-1.4971,-1.4971,-1.4971,0,0,-1.459,-1.4601,-1.4641,-1.4701,-1.4719,-1.4782,-1.4693,-1.4763,-1.481,-1.4741,-1.4834,-1.4841,-1.487,-1.4983,-1.5033,-1.4994,-1.5217,-1.5144,-1.5156,-1.5162,-1.5225,-1.525,-1.5273,-1.4979,-1.4978,-1.4976,0,0,-1.4759,-1.4773,-1.486,-1.4879,-1.4906,-1.4897,-1.4918,-1.4935,-1.4937,-1.5029,-1.4979,-1.5033,-1.5128,-1.5151,-1.5175,-1.535,-1.5311,-1.5368,-1.5468,-1.5534,-1.5555,-1.5573,-1.5636,-1.5659,-1.5381,-1.5382,-1.5382,0,-1.4849,-1.4941,-1.491,-1.4983,-1.5011,-1.495,-1.5038,-1.5058,-1.5101,-1.5122,-1.5077,-1.5195,-1.521,-1.5327,-1.537,-1.5391,-1.5414,-1.5366,-1.5554,-1.5572,-1.5589,-1.5648,-1.5672,-1.5388,-1.5388,-1.5387,-1.5386,0,-1.5051,-1.5115,-1.5182,-1.5223,-1.5258,-1.5339,-1.532,-1.536,-1.5334,-1.533,-1.5424,-1.544,-1.5493,-1.5518,-1.5495,-1.5632,-1.5607,-1.5559,-1.548,-1.5621,-1.5677,-1.5699,-1.5398,-1.5396,-1.5394,-1.5392,0,0,-1.5288,-1.5309,-1.5335,-1.5352,-1.5377,-1.5427,-1.5504,-1.5553,-1.5588,-1.5619,-1.5684,-1.5764,-1.5719,-1.5746,-1.5725,-1.5782,-1.592,-1.5727,-1.5727,-1.5763,-1.6072,-1.611,-1.6136,-1.5893,-1.5897,-1.59,-1.607,0,-1.5457,-1.559,-1.5563,-1.5693,-1.5752,-1.5694,-1.5761,-1.5783,-1.5781,-1.5831,-1.5828,-1.5886,-1.5822,-1.5838,-1.5892,-1.5892,-1.5982,-1.5879,-1.5954,-1.5957,-1.595,-1.6165,-1.6205,-1.6365,-1.6091,-1.6095,-1.6098,0,-1.5673,-1.571,-1.5846,-1.586,-1.5884,-1.5945,-1.5987,-1.6035,-1.606,-1.6054,-1.6083,-1.605,-1.6127,-1.6045,-1.6151,-1.6082,-1.611,-1.6114,-1.612,-1.6127,-1.6037,-1.618,-1.6415,-1.6439,-1.6132,-1.6129,-1.6126,0,-1.5833,-1.5918,-1.6009,-1.6026,-1.6045,-1.6089,-1.6099,-1.6118,-1.6149,-1.6187,-1.6207,-1.6253,-1.6279,-1.6316,-1.6296,-1.6238,-1.6405,-1.6322,-1.6403,-1.6404,-1.6443,-1.6441,-1.6687,-1.6459,-1.6459,-1.6458,-1.6458,0,-1.6026,-1.6111,-1.6082,-1.6139,-1.6232,-1.62,-1.6294,-1.6297,-1.6315,-1.6371,-1.6323,-1.6378,-1.6347,-1.6399,-1.6384,-1.6474,-1.6486,-1.6483,-1.6479,-1.6489,-1.6489,-1.6508,-1.6497,-1.6464,-1.6463,-1.6462,-1.6461,0,-1.6222,-1.6205,-1.6302,-1.631,-1.6314,-1.6383,-1.6391,-1.6444,-1.6436,-1.6508,-1.6524,-1.6513,-1.6571,-1.6554,-1.6618,-1.6607,-1.6721,-1.6702,-1.6713,-1.6709,-1.6791,-1.6784,-1.7059,-1.7094,-1.6843,-1.6845,-1.6847,0,-1.6347,-1.6411,-1.6425,-1.6459,-1.6472,-1.6527,-1.6558,-1.6529,-1.6563,-1.6594,-1.6644,-1.6697,-1.6739,-1.6835,-1.6833,-1.6881,-1.6863,-1.6956,-1.687,-1.6878,-1.6866,-1.6862,-1.6869,-1.6974,-1.6977,-1.6979,-1.6981,0,-1.657,-1.6558,-1.6604,-1.6647,-1.6685,-1.6718,-1.6746,-1.6777,-1.6749,-1.679,-1.6848,-1.688,-1.6944,-1.6998,-1.7041,-1.7052,-1.7013,-1.7008,-1.7029,-1.7041,-1.7045,-1.7044,-1.6761,-1.7002,-1.7,-1.6999,-1.6998,-1.6997,-1.6735,-1.6789,-1.6807,-1.686,-1.6877,-1.6905,-1.6954,-1.6952,-1.7,-1.7049,-1.7028,-1.7096,-1.7117,-1.717,-1.7186,-1.7239,-1.7203,-1.7234,-1.7242,-1.7251,-1.7261,-1.7035,-1.7246,-1.7246,-1.7245,-1.7245,-1.7244,0,-1.6956,-1.6964,-1.7013,-1.7053,-1.7094,-1.7051,-1.708,-1.7118,-1.7177,-1.72,-1.7241,-1.7307,-1.7359,-1.736,-1.7408,-1.745,-1.7433,-1.7464,-1.7461,-1.7464,-1.729,-1.7267,-1.7477,-1.7477,-1.7477,-1.7477,-1.7476,-1.7476,-1.7076,-1.7165,-1.7155,-1.7252,-1.726,-1.7324,-1.7344,-1.7369,-1.7387,-1.7463,-1.7505,-1.7505,-1.7518,-1.7567,-1.7612,-1.7611,-1.7632,-1.7669,-1.7662,-1.75,-1.7477,-1.7455,-1.7433,-1.7674,-1.7674,-1.7832,-1.7833,-1.7834]},{"header":{"parameterUnit":"m.s-1","parameterCategory":1,"la1":30.2991,"la2":30.254,"lo1":-89.0895,"lo2":-89.0444,"dy":0.0017,"dx":0.0017,"nx":28,"ny":28,"refTime":"2024-12-01T09:00:00:Z","depth":0,"parameterNumber":3,"parameterNumberName":"V-component_of_WINDS"},"data":[0,0,0,0,0,0,0,0,0,0,0,0,0,0,0,0,0,0,0,0,0,0,0,0,0,0,0,0,0,0,0,0,0,0,0,0,0,0,0,0,0,0,0,0,0,0,0,0,0,0,0,0,0,0,0,0,0,0,-3.4377,-3.4378,0,-3.4432,-3.4432,-3.4433,-3.4379,-3.4377,-3.4374,-3.4372,-3.4425,-3.4428,-3.4432,0,0,0,0,0,0,0,0,0,0,0,0,0,-3.4223,-3.4226,-3.4377,-3.4378,-3.4379,-3.4432,-3.4432,-3.4433,-3.4379,-3.4376,-3.4374,-3.4371,-3.4424,-3.4428,-3.4432,0,0,0,0,0,0,0,0,0,0,0,0,0,-3.4285,-3.4227,-3.4377,-3.4358,-3.4357,-3.4431,-3.4432,-3.4433,-3.438,-3.4376,-3.4373,-3.437,-3.4422,-3.4427,-3.4432,-3.4527,0,0,-3.4448,-3.445,0,0,0,0,0,0,0,0,-3.4282,-3.4291,-3.436,-3.436,-3.4359,-3.4395,-3.4397,-3.4465,-3.438,-3.4371,-3.4372,-3.4369,-3.4417,-3.4423,-3.444,-3.453,-3.4532,-3.4448,-3.4451,-3.4454,-3.4455,0,0,0,0,0,0,0,-3.4277,-3.4288,-3.4399,-3.4361,-3.436,-3.4346,-3.4351,-3.441,-3.4411,-3.4372,-3.4368,-3.4375,-3.4416,-3.4435,-3.4441,-3.4533,-3.4448,-3.4453,-3.4456,-3.4458,-3.4701,-3.4705,0,0,0,0,0,0,-3.4276,-3.4285,-3.4397,-3.44,-3.4312,-3.4351,-3.4357,-3.4387,-3.441,-3.4411,-3.4378,-3.4372,-3.4428,-3.4435,-3.4442,-3.4554,-3.4453,-3.4458,-3.4461,-3.4698,-3.4702,-3.4706,0,0,0,0,0,0,-3.4273,-3.4286,-3.4395,-3.4342,-3.4354,-3.4357,-3.4391,-3.4389,-3.4408,-3.4415,-3.4415,-3.4397,-3.4426,-3.4435,-3.4506,-3.4555,-3.4461,-3.4465,-3.4694,-3.4699,-3.4704,-3.4778,0,0,0,0,0,0,-3.4268,-3.4286,-3.4323,-3.4343,-3.4358,-3.446,-3.4394,-3.4393,-3.4417,-3.4411,-3.4433,-3.4434,-3.4424,-3.4499,-3.4511,-3.456,-3.4469,-3.469,-3.4696,-3.4702,-3.4772,-3.4785,-3.4797,0,0,0,0,0,-3.4263,-3.4341,-3.4325,-3.4339,-3.4404,-3.4462,-3.4471,-3.4459,-3.4421,-3.4458,-3.4462,-3.4433,-3.4548,-3.4507,-3.452,-3.4571,-3.4686,-3.4694,-3.4702,-3.4766,-3.4783,-3.4797,0,0,0,0,0,0,-3.4325,-3.4343,-3.4325,-3.4413,-3.4437,-3.4453,-3.4499,-3.4477,-3.4511,-3.4504,-3.4486,-3.4492,-3.4567,-3.4576,-3.453,-3.4663,-3.4611,-3.4622,-3.4655,-3.4671,-3.4684,-3.4679,-3.4473,0,0,0,0,0,-3.4349,-3.4396,-3.4409,-3.4484,-3.4498,-3.4496,-3.4521,-3.451,-3.4534,-3.4543,-3.4553,-3.4576,-3.4617,-3.4645,-3.4683,-3.4773,-3.4776,-3.4814,-3.4827,-3.4838,-3.4847,-3.4894,-3.491,-3.4731,-3.4731,-3.4731,0,0,-3.4399,-3.4415,-3.4445,-3.4497,-3.4515,-3.4562,-3.4505,-3.4558,-3.4593,-3.4551,-3.4619,-3.4627,-3.4651,-3.4732,-3.4768,-3.4742,-3.4897,-3.4847,-3.4856,-3.4859,-3.4903,-3.492,-3.4935,-3.4737,-3.4736,-3.4735,0,0,-3.4514,-3.4531,-3.4595,-3.4614,-3.4641,-3.4639,-3.4655,-3.4675,-3.4679,-3.4747,-3.4716,-3.4756,-3.4828,-3.4846,-3.4865,-3.4986,-3.496,-3.4999,-3.5066,-3.5112,-3.5126,-3.5138,-3.5181,-3.5196,-3.5009,-3.5009,-3.5009,0,-3.4572,-3.4644,-3.4631,-3.4686,-3.4709,-3.4674,-3.4738,-3.4756,-3.4794,-3.481,-3.4781,-3.4869,-3.4883,-3.4967,-3.4997,-3.5014,-3.5029,-3.4996,-3.5125,-3.5138,-3.5149,-3.5189,-3.5205,-3.5013,-3.5013,-3.5012,-3.5012,0,-3.4713,-3.4764,-3.4812,-3.485,-3.4879,-3.4938,-3.4933,-3.4963,-3.4949,-3.4951,-3.502,-3.5035,-3.5076,-3.5095,-3.5082,-3.5177,-3.5159,-3.5128,-3.5075,-3.5171,-3.5208,-3.5223,-3.502,-3.5018,-3.5017,-3.5016,0,0,-3.4869,-3.4899,-3.4917,-3.4933,-3.496,-3.4998,-3.5055,-3.5096,-3.5122,-3.5149,-3.5195,-3.5256,-3.5227,-3.5248,-3.5237,-3.5277,-3.5371,-3.524,-3.5241,-3.5263,-3.5475,-3.5498,-3.5516,-3.5354,-3.5356,-3.5359,-3.5472,0,-3.4984,-3.5085,-3.5074,-3.5169,-3.5214,-3.5181,-3.5231,-3.5252,-3.5255,-3.5292,-3.5294,-3.5338,-3.5297,-3.5309,-3.5348,-3.5351,-3.5413,-3.5343,-3.5395,-3.5397,-3.539,-3.5535,-3.556,-3.5667,-3.5487,-3.5489,-3.5491,0,-3.5132,-3.5165,-3.5265,-3.5284,-3.5302,-3.5347,-3.5383,-3.542,-3.5442,-3.5441,-3.5465,-3.5446,-3.5502,-3.5448,-3.5524,-3.5477,-3.5497,-3.5502,-3.5506,-3.551,-3.545,-3.5542,-3.57,-3.5716,-3.5514,-3.5512,-3.5511,0,-3.5234,-3.5303,-3.5372,-3.5387,-3.5411,-3.5443,-3.5455,-3.5474,-3.5499,-3.5529,-3.5545,-3.5581,-3.5601,-3.5629,-3.562,-3.5582,-3.5698,-3.5643,-3.5697,-3.5697,-3.5722,-3.5721,-3.5885,-3.5737,-3.5737,-3.5737,-3.5736,0,-3.5363,-3.5425,-3.5418,-3.546,-3.5528,-3.5515,-3.5582,-3.5589,-3.5607,-3.5648,-3.5622,-3.5661,-3.5647,-3.5685,-3.5678,-3.5742,-3.5751,-3.575,-3.5748,-3.5753,-3.5753,-3.5765,-3.5757,-3.5741,-3.574,-3.5739,-3.5738,0,-3.5489,-3.5487,-3.5559,-3.5576,-3.5582,-3.5631,-3.5645,-3.5684,-3.5684,-3.5737,-3.5748,-3.5749,-3.5792,-3.5786,-3.5834,-3.5829,-3.5908,-3.5897,-3.5901,-3.5898,-3.5952,-3.5946,-3.613,-3.6152,-3.5991,-3.5992,-3.5993,0,-3.5571,-3.5618,-3.564,-3.5667,-3.5681,-3.5724,-3.5749,-3.5737,-3.5764,-3.5792,-3.5827,-3.5869,-3.5901,-3.5972,-3.5976,-3.6012,-3.6001,-3.6062,-3.6006,-3.6009,-3.6,-3.5998,-3.6002,-3.6073,-3.6075,-3.6077,-3.6078,0,-3.5717,-3.5713,-3.5751,-3.5788,-3.5819,-3.5847,-3.5873,-3.5896,-3.5886,-3.5917,-3.5962,-3.5987,-3.6037,-3.6078,-3.6112,-3.6122,-3.6098,-3.6096,-3.611,-3.6115,-3.6115,-3.6115,-3.593,-3.6092,-3.609,-3.6089,-3.6088,-3.6088,-3.5823,-3.5862,-3.5884,-3.5927,-3.5945,-3.5969,-3.6006,-3.6011,-3.6049,-3.6089,-3.6079,-3.6129,-3.6149,-3.6192,-3.6206,-3.6244,-3.6221,-3.6242,-3.6247,-3.6253,-3.6259,-3.611,-3.6251,-3.625,-3.625,-3.6249,-3.6249,0,-3.5966,-3.5978,-3.6018,-3.6055,-3.6088,-3.6064,-3.609,-3.6119,-3.6164,-3.6185,-3.6218,-3.6268,-3.6308,-3.6314,-3.6351,-3.638,-3.637,-3.639,-3.6388,-3.639,-3.6277,-3.6261,-3.6398,-3.6398,-3.6398,-3.6398,-3.6398,-3.6398,-3.6045,-3.6111,-3.611,-3.6184,-3.6195,-3.6245,-3.6262,-3.6284,-3.63,-3.6358,-3.6391,-3.6396,-3.641,-3.6448,-3.6483,-3.6483,-3.6498,-3.6522,-3.6518,-3.6413,-3.6398,-3.6384,-3.6368,-3.6525,-3.6526,-3.6628,-3.6629,-3.6629]}]]